West Yellowstone, MT

10:12 PM MST on February 09, 2016 (GMT -0700)
Yellowstone

Weather History for KWYS - November, 2011

Change the Weather History Date:

Sunday, November 27, 2011

  Actual Average Record
Temperature  
Mean Temperature 10 °F -  
Max Temperature 32 °F 23 °F 33 °F (2012)
Min Temperature -11 °F 0 °F -11 °F (2011)
Degree Days  
Heating Degree Days 54    
Moisture  
Dew Point -3 °F    
Average Humidity 58    
Maximum Humidity 85    
Minimum Humidity 25    
Precipitation  
Precipitation 0.00 in - - ()
Sea Level Pressure  
Sea Level Pressure 30.47 in    
Wind  
Wind Speed 2 mph (SSE)    
Max Wind Speed 17 mph    
Max Gust Speed 22 mph    
Visibility 10 miles    
Events      
Averages and records for this station are not official NWS values.
T = Trace of Precipitation, MM = Missing Value Source: NWS Daily Summary

Daily Weather History Graph

Daily Weather History Graph

Search for Another Location

Airport or City:

Trip Planner

Search our weather history database for the weather conditions in past years. The results will help you decide how hot, cold, wet, or windy it might be!

Date:

Astronomy

Nov. 27, 2011 Rise Set
Actual Time 7:36 AM MST 4:47 PM MST
Civil Twilight 7:03 AM MST 5:19 PM MST
Nautical Twilight 6:27 AM MST 5:56 PM MST
Astronomical Twilight 5:52 AM MST 6:31 PM MST
Moon 10:05 AM MST (11/27) 7:29 PM MST (11/27)
Length of Visible Light 10h 15m
Length of Day
9h 10m
Waxing Crescent, 9% of the Moon is Illuminated
Nov 27
Waxing Crescent
Dec 2
First Quarter
Dec 10
Full
Dec 17
Last Quarter
Dec 24
New

Hourly Weather History & Observations

Time (MST) Temp. Windchill Dew Point Humidity Pressure Visibility Wind Dir Wind Speed Gust Speed Precip Events Conditions
12:00 AM -0.4 °F - -4.0 °F 85% 30.58 in 10.0 mi Calm Calm - N/A   Clear
12:20 AM -0.4 °F - -4.0 °F 85% 30.59 in 10.0 mi Calm Calm - N/A   Clear
12:40 AM -0.4 °F - -4.0 °F 85% 30.58 in 10.0 mi Calm Calm - N/A   Clear
1:00 AM -0.4 °F - -4.0 °F 85% 30.58 in 10.0 mi Calm Calm - N/A   Clear
1:20 AM -0.4 °F - -5.8 °F 78% 30.58 in 10.0 mi Calm Calm - N/A   Clear
1:40 AM -2.2 °F -10.4 °F -7.6 °F 78% 30.58 in 10.0 mi SW 3.5 mph - N/A   Clear
2:00 AM -2.2 °F - -7.6 °F 78% 30.57 in 10.0 mi Calm Calm - N/A   Clear
2:20 AM -4.0 °F - -9.4 °F 78% 30.58 in 10.0 mi Calm Calm - N/A   Clear
2:40 AM -4.0 °F -14.6 °F -9.4 °F 78% 30.57 in 10.0 mi SW 4.6 mph - N/A   Clear
3:00 AM -4.0 °F - -9.4 °F 78% 30.56 in 10.0 mi Calm Calm - N/A   Clear
3:20 AM -4.0 °F - -9.4 °F 78% 30.56 in 10.0 mi Calm Calm - N/A   Clear
3:40 AM -5.8 °F - -11.2 °F 77% 30.56 in 10.0 mi Calm Calm - N/A   Clear
4:00 AM -5.8 °F - -11.2 °F 77% 30.56 in 10.0 mi Calm Calm - N/A   Clear
4:20 AM -4.0 °F -12.4 °F -9.4 °F 78% 30.54 in 10.0 mi SSE 3.5 mph - N/A   Clear
4:40 AM -5.8 °F - -11.2 °F 77% 30.55 in 10.0 mi Calm Calm - N/A   Clear
5:00 AM -7.6 °F -16.5 °F - N/A% 30.55 in 10.0 mi South 3.5 mph - N/A   Clear
5:20 AM -7.6 °F -16.5 °F -13.0 °F 77% 30.54 in 10.0 mi SW 3.5 mph - N/A   Clear
5:40 AM -7.6 °F - -13.0 °F 77% 30.54 in 10.0 mi Calm Calm - N/A   Clear
6:40 AM -9.4 °F - -13.0 °F 84% 30.53 in 10.0 mi Calm Calm - N/A   Clear
7:00 AM -9.4 °F - -14.8 °F 77% 30.54 in 10.0 mi Calm Calm - N/A   Clear
7:20 AM -11.2 °F -24.8 °F -16.6 °F 77% 30.54 in 10.0 mi SSW 5.8 mph - N/A   Clear
7:40 AM -9.4 °F - -14.8 °F 77% 30.54 in 10.0 mi Calm Calm - N/A   Clear
8:00 AM -9.4 °F - -13.0 °F 84% 30.54 in 10.0 mi Calm Calm - N/A   Clear
8:20 AM -7.6 °F - -13.0 °F 77% 30.53 in 10.0 mi Calm Calm - N/A   Clear
8:40 AM -0.4 °F - -7.6 °F 72% 30.54 in 10.0 mi Calm Calm - N/A   Clear
9:00 AM -0.4 °F - -4.0 °F 85% 30.53 in 10.0 mi Calm Calm - N/A   Clear
9:20 AM 5.0 °F - -2.2 °F 72% 30.53 in 10.0 mi Calm Calm - N/A   Clear
9:40 AM 6.8 °F - -0.4 °F 72% 30.53 in 10.0 mi Calm Calm - N/A   Clear
10:00 AM 8.6 °F - -0.4 °F 67% 30.52 in 10.0 mi Calm Calm - N/A   Clear
10:20 AM 8.6 °F 2.0 °F 1.4 °F 73% 30.51 in 10.0 mi ENE 3.5 mph - N/A   Clear
11:00 AM 10.4 °F - 1.4 °F 67% 30.50 in 10.0 mi Calm Calm - N/A   Clear
11:40 AM 14.0 °F - 1.4 °F 57% 30.47 in 10.0 mi Calm Calm - N/A   Clear
12:00 PM 17.6 °F 12.3 °F 1.4 °F 49% 30.46 in 10.0 mi NNE 3.5 mph - N/A   Clear
12:20 PM 21.2 °F - 3.2 °F 46% 30.44 in 10.0 mi Calm Calm - N/A   Clear
12:40 PM 23.0 °F - 3.2 °F 43% 30.43 in 10.0 mi Calm Calm - N/A   Clear
1:00 PM 23.0 °F 17.0 °F 3.2 °F 43% 30.41 in 10.0 mi NE 4.6 mph - N/A   Clear
1:20 PM 23.0 °F 14.7 °F 5.0 °F 46% 30.41 in 10.0 mi NE 6.9 mph - N/A   Clear
1:40 PM 26.6 °F - 5.0 °F 40% 30.40 in 10.0 mi Calm Calm - N/A   Clear
2:00 PM 32.0 °F 24.8 °F 1.4 °F 27% 30.39 in 10.0 mi SW 8.1 mph - N/A   Clear
2:20 PM 32.0 °F 20.8 °F -0.4 °F 25% 30.38 in 10.0 mi SSW 17.3 mph 21.9 mph N/A   Clear
3:20 PM 32.0 °F 27.5 °F -0.4 °F 25% 30.37 in 10.0 mi South 4.6 mph - N/A   Clear
3:40 PM 32.0 °F 28.7 °F -0.4 °F 25% 30.37 in 10.0 mi SE 3.5 mph - N/A   Clear
4:00 PM 28.4 °F 19.1 °F 1.4 °F 31% 30.38 in 10.0 mi South 10.4 mph - N/A   Clear
4:20 PM 28.4 °F 20.4 °F 1.4 °F 31% 30.36 in 10.0 mi South 8.1 mph - N/A   Clear
4:40 PM 28.4 °F 24.6 °F 1.4 °F 31% 30.36 in 10.0 mi SE 3.5 mph - N/A   Clear
5:00 PM 28.4 °F 24.6 °F 1.4 °F 31% 30.36 in 10.0 mi SE 3.5 mph - N/A   Clear
5:20 PM 28.4 °F 22.2 °F 1.4 °F 31% 30.36 in 10.0 mi SE 5.8 mph - N/A   Clear
5:40 PM 28.4 °F 19.1 °F 1.4 °F 31% 30.35 in 10.0 mi SSE 10.4 mph - N/A   Clear
6:00 PM 28.4 °F 21.2 °F 1.4 °F 31% 30.34 in 10.0 mi SSE 6.9 mph - N/A   Clear
6:20 PM 28.4 °F 22.2 °F 1.4 °F 31% 30.34 in 10.0 mi SE 5.8 mph - N/A   Clear
6:40 PM 28.4 °F 22.2 °F 1.4 °F 31% 30.34 in 10.0 mi SE 5.8 mph - N/A   Clear
7:00 PM 28.4 °F 20.4 °F 1.4 °F 31% 30.33 in 10.0 mi SE 8.1 mph - N/A   Clear
7:20 PM 28.4 °F 22.2 °F 1.4 °F 31% 30.33 in 10.0 mi SE 5.8 mph - N/A   Clear
7:40 PM 26.6 °F 20.0 °F 3.2 °F 37% 30.31 in 10.0 mi ENE 5.8 mph - N/A   Clear
8:00 PM 28.4 °F 22.2 °F 3.2 °F 34% 30.30 in 10.0 mi East 5.8 mph - N/A   Clear
8:20 PM 26.6 °F 20.0 °F 5.0 °F 40% 30.29 in 10.0 mi East 5.8 mph - N/A   Clear
8:40 PM 26.6 °F 22.6 °F 5.0 °F 40% 30.29 in 10.0 mi ENE 3.5 mph - N/A   Clear
9:00 PM 26.6 °F - 5.0 °F 40% 30.31 in 10.0 mi Calm Calm - N/A   Clear
9:20 PM 32.0 °F 28.7 °F 5.0 °F 32% 30.30 in 10.0 mi NW 3.5 mph 20.7 mph N/A   Clear
9:40 PM 24.8 °F - 6.8 °F 46% 30.31 in 10.0 mi Calm Calm - N/A   Clear
10:00 PM 32.0 °F 24.2 °F 5.0 °F 32% 30.31 in 10.0 mi SW 9.2 mph 21.9 mph N/A   Clear
10:20 PM 32.0 °F 24.2 °F 5.0 °F 32% 30.29 in 10.0 mi SSW 9.2 mph 21.9 mph N/A   Clear
10:40 PM 32.0 °F 23.0 °F 6.8 °F 35% 30.28 in 10.0 mi SSW 11.5 mph 23.0 mph N/A   Clear
11:00 PM 26.6 °F 22.6 °F 5.0 °F 40% 30.30 in 10.0 mi NE 3.5 mph - N/A   Clear
11:20 PM 26.6 °F - 5.0 °F 40% 30.30 in 10.0 mi Calm Calm - N/A   Clear
11:40 PM 28.4 °F 22.2 °F 6.8 °F 40% 30.30 in 10.0 mi NE 5.8 mph 16.1 mph N/A   Clear